This is the latest recevied weather packets stored in our database for station/object n3uvr. If no packets are shown the sender has not sent any weather packets the latest 10 day(s).
| Time | Temp. | Humidity | Pressure | Rain* | Wind** | Luminosity | Snow |
|---|---|---|---|---|---|---|---|
| 1788278303 | 22.78° C | 83% | 1015.1 hPa | 0 mm | - | 33 W/m² | - |
| 1788277705 | 22.78° C | 83% | 1015 hPa | 0 mm | - | 65 W/m² | - |
| 1788277100 | 22.22° C | 83% | 1015 hPa | 0.25 mm | - | 35 W/m² | - |
| 1788275869 | 22.22° C | 83% | 1015.1 hPa | 0.25 mm | - | 12 W/m² | - |
| 1788274662 | 22.22° C | 83% | 1015.2 hPa | 0.76 mm | - | 46 W/m² | - |
| 1788273496 | 21.67° C | 83% | 1015.4 hPa | 1.52 mm | - | 25 W/m² | - |
| 1788272914 | 21.67° C | 83% | 1015.4 hPa | 1.78 mm | - | 91 W/m² | - |
| 1788272322 | 21.67° C | 83% | 1015.2 hPa | 1.78 mm | - | 25 W/m² | - |
| 1788271728 | 21.67° C | 83% | 1015.1 hPa | 1.78 mm | - | 14 W/m² | - |
| 1788269874 | 21.11° C | 82% | 1015.4 hPa | 0.76 mm | - | 5 W/m² | - |
| 1788269285 | 21.11° C | 82% | 1015.7 hPa | 0.51 mm | - | 5 W/m² | - |
| 1788268692 | 21.11° C | 82% | 1015.3 hPa | 0.51 mm | - | 7 W/m² | - |
| 1788268110 | 21.11° C | 82% | 1015.3 hPa | 0.51 mm | - | 5 W/m² | - |
| 1788267501 | 21.11° C | 82% | 1015.6 hPa | 0 mm | - | 0 W/m² | - |
| 1788266287 | 21.11° C | 82% | 1015.6 hPa | 0 mm | - | 12 W/m² | - |
| 1788265678 | 21.11° C | 82% | 1015.3 hPa | 0 mm | - | 19 W/m² | - |
| 1788262692 | 20.56° C | 82% | 1015.2 hPa | 0 mm | - | 5 W/m² | - |
| 1788262070 | 20.56° C | 82% | 1015.1 hPa | 0 mm | - | 0 W/m² | - |
| 1788261463 | 20.56° C | 82% | 1015.1 hPa | 0 mm | - | 0 W/m² | - |
| 1788260854 | 20.56° C | 82% | 1015.1 hPa | 0 mm | - | 0 W/m² | - |
| 1788260245 | 20.56° C | 82% | 1015.1 hPa | 0 mm | - | 0 W/m² | - |
| 1788259641 | 20.56° C | 82% | 1015.2 hPa | 0.25 mm | - | 0 W/m² | - |
| 1788257844 | 20.56° C | 82% | 1015.3 hPa | 0.25 mm | - | 0 W/m² | - |
| 1788256660 | 20.56° C | 82% | 1015.7 hPa | 0.25 mm | - | 0 W/m² | - |
| 1788255442 | 20.56° C | 82% | 1015.4 hPa | 0 mm | - | 0 W/m² | - |
* Rain latest hour (hover to see other rain measurements)
** Current wind speed in m/s (hover to see current wind gust speed)